When you browse on this site, cookies collect data to enhance your experience and personalize the content and advertising you see.
Visit our Privacy Policy to learn more. By continuing to use the site, you agree to this use of cookies and data.
  • în România
  • Lista ţărilor
  • Pe 7 zile
  • Temperatura apei
  • Hartă satelitară
  • Meteo pe hartă
  • Widget-uri
  • user-avatar
    Intrare

    Meteo pe oră la Seoni

    Astăzi, 16 Februarie, Sâmbătă

    Timp Temperatura Precipitaţii Vânt Presiune Umiditate
    00:00 +20°C° 0 mm 2 m/s 709 mmHg 72%
    01:00 +19°C° 0 mm 2 m/s 709 mmHg 72%
    02:00 +19°C° 0 mm 2 m/s 709 mmHg 71%
    03:00 +18°C° 0 mm 2 m/s 709 mmHg 70%
    04:00 +18°C° 0 mm 2 m/s 709 mmHg 69%
    05:00 +17°C° 0 mm 2 m/s 709 mmHg 67%
    06:00 +18°C° 0 mm 3 m/s 710 mmHg 62%
    07:00 +19°C° 0 mm 3 m/s 710 mmHg 57%
    08:00 +20°C° 0 mm 4 m/s 710 mmHg 53%
    09:00 +22°C° 0 mm 3 m/s 711 mmHg 47%
    10:00 +25°C° 0 mm 3 m/s 711 mmHg 41%
    11:00 +27°C° 0 mm 3 m/s 711 mmHg 35%
    12:00 +27°C° 0 mm 3 m/s 710 mmHg 32%
    13:00 +28°C° 0 mm 2 m/s 709 mmHg 29%
    14:00 +29°C° 0 mm 2 m/s 709 mmHg 26%
    15:00 +29°C° 0 mm 2 m/s 709 mmHg 26%
    16:00 +28°C° 0 mm 3 m/s 708 mmHg 26%
    17:00 +28°C° 0 mm 3 m/s 708 mmHg 27%
    18:00 +26°C° 0 mm 3 m/s 708 mmHg 29%
    19:00 +24°C° 0 mm 3 m/s 708 mmHg 31%
    20:00 +21°C° 0 mm 4 m/s 709 mmHg 33%
    21:00 +21°C° 0 mm 4 m/s 709 mmHg 33%
    22:00 +20°C° 0 mm 4 m/s 709 mmHg 34%
    23:00 +19°C° 0 mm 4 m/s 709 mmHg 34%

    Mâine, 17 Februarie, Duminică

    Timp Temperatura Precipitaţii Vânt Presiune Umiditate
    00:00 +19°C° 0 mm 4 m/s 708 mmHg 35%
    01:00 +18°C° 0 mm 4 m/s 708 mmHg 36%
    02:00 +17°C° 0 mm 4 m/s 708 mmHg 37%
    03:00 +17°C° 0 mm 4 m/s 708 mmHg 37%
    04:00 +16°C° 0 mm 3 m/s 708 mmHg 38%
    05:00 +14°C° 0 mm 3 m/s 707 mmHg 39%
    06:00 +16°C° 0 mm 3 m/s 708 mmHg 38%
    07:00 +17°C° 0 mm 3 m/s 709 mmHg 38%
    08:00 +18°C° 0 mm 4 m/s 710 mmHg 37%
    09:00 +20°C° 0 mm 3 m/s 710 mmHg 32%
    10:00 +22°C° 0 mm 3 m/s 710 mmHg 26%
    11:00 +25°C° 0 mm 3 m/s 710 mmHg 21%
    12:00 +26°C° 0 mm 3 m/s 709 mmHg 19%
    13:00 +27°C° 0 mm 3 m/s 709 mmHg 16%
    14:00 +29°C° 0 mm 3 m/s 708 mmHg 14%
    15:00 +28°C° 0 mm 3 m/s 707 mmHg 15%
    16:00 +27°C° 0 mm 3 m/s 707 mmHg 17%
    17:00 +26°C° 0 mm 3 m/s 707 mmHg 19%
    18:00 +25°C° 0 mm 3 m/s 707 mmHg 20%
    19:00 +22°C° 0 mm 3 m/s 707 mmHg 22%
    20:00 +20°C° 0 mm 3 m/s 707 mmHg 24%
    21:00 +20°C° 0 mm 3 m/s 707 mmHg 24%
    22:00 +19°C° 0 mm 3 m/s 707 mmHg 25%
    23:00 +19°C° 0 mm 2 m/s 707 mmHg 25%

    Poimâine, 18 Februarie, Luni

    Timp Temperatura Precipitaţii Vânt Presiune Umiditate
    00:00 +19°C° 0 mm 2 m/s 707 mmHg 25%
    01:00 +18°C° 0 mm 2 m/s 706 mmHg 26%
    02:00 +18°C° 0 mm 2 m/s 706 mmHg 27%
    03:00 +17°C° 0 mm 2 m/s 706 mmHg 28%
    04:00 +17°C° 0 mm 2 m/s 706 mmHg 29%
    05:00 +17°C° 0 mm 2 m/s 706 mmHg 29%
    06:00 +18°C° 0 mm 2 m/s 707 mmHg 28%
    07:00 +19°C° 0 mm 2 m/s 708 mmHg 27%
    08:00 +21°C° 0 mm 2 m/s 709 mmHg 26%
    09:00 +24°C° 0 mm 2 m/s 709 mmHg 23%
    10:00 +26°C° 0 mm 2 m/s 709 mmHg 20%
    11:00 +28°C° 0 mm 3 m/s 709 mmHg 16%
    12:00 +29°C° 0 mm 2 m/s 709 mmHg 16%
    13:00 +30°C° 0 mm 2 m/s 708 mmHg 15%
    14:00 +31°C° 0 mm 2 m/s 707 mmHg 14%
    15:00 +30°C° 0 mm 2 m/s 706 mmHg 16%
    16:00 +30°C° 0 mm 2 m/s 706 mmHg 18%
    17:00 +29°C° 0 mm 1 m/s 706 mmHg 20%
    18:00 +28°C° 0 mm 1 m/s 706 mmHg 21%
    19:00 +26°C° 0 mm 2 m/s 707 mmHg 23%
    20:00 +24°C° 0 mm 2 m/s 707 mmHg 24%
    21:00 +23°C° 0 mm 1 m/s 707 mmHg 25%
    22:00 +23°C° 0 mm 1 m/s 707 mmHg 26%
    23:00 +22°C° 0 mm 1 m/s 707 mmHg 27%

    19 Februarie, Marţi

    Timp Temperatura Precipitaţii Vânt Presiune Umiditate
    00:00 +22°C° 0 mm 1 m/s 706 mmHg 28%
    01:00 +19°C° 0 mm 0 m/s 706 mmHg 28%
    02:00 +19°C° 0 mm 0 m/s 705 mmHg 29%
    03:00 +19°C° 0 mm 0 m/s 705 mmHg 29%
    04:00 +18°C° 0 mm 0 m/s 705 mmHg 30%
    05:00 +18°C° 0 mm 0 m/s 705 mmHg 30%
    06:00 +19°C° 0 mm 0 m/s 707 mmHg 29%
    07:00 +21°C° 0 mm 0 m/s 708 mmHg 28%
    08:00 +22°C° 0 mm 0 m/s 709 mmHg 26%
    09:00 +25°C° 0 mm 0 m/s 709 mmHg 23%
    10:00 +27°C° 0 mm 0 m/s 710 mmHg 20%
    11:00 +30°C° 0 mm 0 m/s 710 mmHg 17%
    12:00 +32°C° 0 mm 1 m/s 709 mmHg 17%
    13:00 +33°C° 0 mm 1 m/s 709 mmHg 16%
    14:00 +34°C° 0 mm 2 m/s 708 mmHg 15%
    15:00 +34°C° 0 mm 2 m/s 708 mmHg 17%
    16:00 +32°C° 0 mm 2 m/s 708 mmHg 19%
    17:00 +32°C° 0 mm 2 m/s 708 mmHg 20%
    18:00 +30°C° 0 mm 2 m/s 708 mmHg 23%
    19:00 +28°C° 0 mm 2 m/s 709 mmHg 27%
    20:00 +26°C° 0 mm 2 m/s 709 mmHg 30%
    21:00 +25°C° 0 mm 1 m/s 709 mmHg 31%
    22:00 +25°C° 0 mm 1 m/s 709 mmHg 32%
    23:00 +24°C° 0 mm 1 m/s 709 mmHg 34%

    20 Februarie, Miercuri

    Timp Temperatura Precipitaţii Vânt Presiune Umiditate
    00:00 +24°C° 0 mm 1 m/s 709 mmHg 34%
    01:00 +24°C° 0 mm 1 m/s 708 mmHg 35%
    02:00 +23°C° 0 mm 1 m/s 708 mmHg 36%
    03:00 +23°C° 0 mm 1 m/s 708 mmHg 36%
    04:00 +22°C° 0 mm 1 m/s 708 mmHg 37%
    05:00 +22°C° 0 mm 1 m/s 708 mmHg 38%
    06:00 +23°C° 0 mm 1 m/s 709 mmHg 36%
    07:00 +25°C° 0 mm 1 m/s 710 mmHg 34%
    08:00 +26°C° 0 mm 1 m/s 710 mmHg 32%
    09:00 +28°C° 0 mm 2 m/s 711 mmHg 28%
    10:00 +30°C° 0 mm 3 m/s 711 mmHg 23%
    11:00 +33°C° 0 mm 4 m/s 711 mmHg 19%
    12:00 +34°C° 0 mm 4 m/s 710 mmHg 18%
    13:00 +35°C° 0 mm 3 m/s 710 mmHg 16%
    14:00 +35°C° 0 mm 3 m/s 709 mmHg 15%
    15:00 +35°C° 0 mm 3 m/s 709 mmHg 16%
    16:00 +34°C° 0 mm 2 m/s 708 mmHg 18%
    17:00 +32°C° 0 mm 2 m/s 708 mmHg 19%
    18:00 +31°C° 0 mm 2 m/s 709 mmHg 21%
    19:00 +29°C° 0 mm 2 m/s 709 mmHg 22%
    20:00 +27°C° 0 mm 2 m/s 710 mmHg 24%
    21:00 +27°C° 0 mm 1 m/s 710 mmHg 26%
    22:00 +26°C° 0 mm 1 m/s 710 mmHg 28%
    23:00 +24°C° 0 mm 0 m/s 710 mmHg 29%

    21 Februarie, Joi

    Timp Temperatura Precipitaţii Vânt Presiune Umiditate
    00:00 +23°C° 0 mm 0 m/s 709 mmHg 31%
    01:00 +22°C° 0 mm 0 m/s 709 mmHg 32%
    02:00 +22°C° 0 mm 0 m/s 709 mmHg 33%
    03:00 +21°C° 0 mm 0 m/s 709 mmHg 35%
    04:00 +23°C° 0 mm 1 m/s 709 mmHg 37%
    05:00 +23°C° 0 mm 1 m/s 709 mmHg 38%
    06:00 +24°C° 0 mm 1 m/s 710 mmHg 39%
    07:00 +25°C° 0 mm 2 m/s 711 mmHg 40%
    08:00 +26°C° 0 mm 3 m/s 711 mmHg 40%
    09:00 +28°C° 0 mm 3 m/s 712 mmHg 38%
    10:00 +30°C° 0 mm 4 m/s 712 mmHg 36%
    11:00 +33°C° 0 mm 4 m/s 712 mmHg 33%
    12:00 +34°C° 0 mm 4 m/s 711 mmHg 32%
    13:00 +35°C° 0 mm 4 m/s 710 mmHg 30%
    14:00 +36°C° 0 mm 4 m/s 709 mmHg 28%
    15:00 +35°C° 0 mm 4 m/s 709 mmHg 30%
    16:00 +35°C° 0 mm 3 m/s 709 mmHg 31%
    17:00 +34°C° 0 mm 3 m/s 709 mmHg 33%
    18:00 +31°C° 0.4 mm 2 m/s 709 mmHg 39%
    19:00 +29°C° 0.4 mm 1 m/s 709 mmHg 45%
    20:00 +25°C° 0.4 mm 0 m/s 710 mmHg 52%
    21:00 +27°C° 0 mm 1 m/s 709 mmHg 52%
    22:00 +26°C° 0 mm 1 m/s 709 mmHg 52%
    23:00 +26°C° 0 mm 1 m/s 709 mmHg 52%
    Arată mai mult